| time (UTC) | temp F | wind direction | speed MPH | gust MPH | rain 1hr in | rain 24hr in | rain mn in | humidity % | barometer mb |
| 20260901194501 | 63 | 272 | 0.0 | 0.0 | 0.00 | 0.00 | 0.00 | 72 | 1019.8 |
| 20260901193109 | 64 | 248 | 0.0 | 0.0 | 0.00 | 0.00 | 0.00 | 71 | 1019.8 |
| 20260901191600 | 64 | 272 | 0.0 | 0.0 | 0.00 | 0.00 | 0.00 | 71 | 1019.7 |
| 20260901190100 | 64 | 254 | 0.0 | 0.0 | 0.00 | 0.00 | 0.00 | 70 | 1019.7 |
| 20260901184607 | 65 | 252 | 0.0 | 0.0 | 0.00 | 0.00 | 0.00 | 69 | 1019.5 |
| 20260901183105 | 66 | 288 | 0.0 | 0.0 | 0.00 | 0.00 | 0.00 | 68 | 1019.4 |
| 20260901181558 | 67 | 273 | 0.0 | 0.0 | 0.00 | 0.00 | 0.00 | 67 | 1019.2 |
| 20260901180057 | 68 | 252 | 0.0 | 0.0 | 0.00 | 0.00 | 0.00 | 64 | 1019.1 |
| 20260901174557 | 70 | 251 | 0.0 | 0.0 | 0.00 | 0.01 | 0.00 | 60 | 1019.0 |
| 20260901173056 | 71 | 250 | 0.0 | 0.0 | 0.00 | 0.01 | 0.00 | 57 | 1019.0 |
| 20260901171603 | 71 | 274 | 0.0 | 0.0 | 0.00 | 0.01 | 0.00 | 55 | 1018.8 |
| 20260901170058 | 72 | 276 | 0.0 | 0.0 | 0.00 | 0.01 | 0.00 | 54 | 1018.8 |
| 20260901164554 | 73 | 252 | 0.0 | 0.0 | 0.00 | 0.01 | 0.00 | 54 | 1018.9 |
| 20260901163052 | 73 | 253 | 0.0 | 0.0 | 0.00 | 0.01 | 0.00 | 53 | 1019.1 |
| 20260901161552 | 73 | 235 | 0.0 | 0.0 | 0.00 | 0.01 | 0.00 | 53 | 1019.1 |
| 20260901160059 | 74 | 251 | 0.0 | 0.0 | 0.00 | 0.01 | 0.00 | 49 | 1019.0 |
| 20260901154550 | 74 | 164 | 0.0 | 9.0 | 0.00 | 0.01 | 0.00 | 50 | 1019.0 |
| 20260901153049 | 74 | 210 | 5.0 | 11.0 | 0.00 | 0.01 | 0.00 | 49 | 1019.2 |
| 20260901151549 | 74 | 360 | 0.0 | 8.0 | 0.00 | 0.01 | 0.00 | 49 | 1019.0 |
| 20260901150048 | 75 | 360 | 7.0 | 13.0 | 0.00 | 0.01 | 0.00 | 49 | 1019.0 |
| 20260901144546 | 72 | 236 | 0.0 | 0.0 | 0.00 | 0.01 | 0.00 | 54 | 1019.0 |
| 20260901143045 | 72 | 253 | 0.0 | 0.0 | 0.00 | 0.01 | 0.00 | 56 | 1019.0 |
| 20260901141544 | 72 | 234 | 0.0 | 0.0 | 0.00 | 0.01 | 0.00 | 58 | 1019.3 |
| 20260901140043 | 72 | 232 | 0.0 | 0.0 | 0.00 | 0.01 | 0.00 | 55 | 1019.4 |
| 20260901134600 | 73 | 262 | 0.0 | 1.0 | 0.00 | 0.01 | 0.00 | 52 | 1019.5 |
| 20260901133042 | 74 | 234 | 3.0 | 10.0 | 0.00 | 0.01 | 0.00 | 50 | 1019.5 |
| 20260901131540 | 74 | 197 | 3.0 | 11.0 | 0.00 | 0.01 | 0.00 | 54 | 1019.5 |
| 20260901130037 | 73 | 199 | 4.0 | 13.0 | 0.00 | 0.01 | 0.00 | 54 | 1019.6 |
| 20260901124541 | 72 | 360 | 3.0 | 9.0 | 0.00 | 0.01 | 0.00 | 56 | 1019.7 |
| 20260901123035 | 73 | 167 | 3.0 | 7.0 | 0.00 | 0.01 | 0.00 | 55 | 1019.7 |
| 20260901121534 | 73 | 193 | 4.0 | 10.0 | 0.00 | 0.01 | 0.00 | 54 | 1019.8 |
| 20260901120035 | 72 | 190 | 3.0 | 7.0 | 0.00 | 0.01 | 0.00 | 56 | 1020.0 |
| 20260901114538 | 71 | 232 | 4.0 | 12.0 | 0.00 | 0.01 | 0.00 | 60 | 1019.9 |
| 20260901113053 | 71 | 249 | 4.0 | 12.0 | 0.00 | 0.01 | 0.00 | 60 | 1020.0 |
| 20260901111529 | 72 | 198 | 6.0 | 12.0 | 0.00 | 0.01 | 0.00 | 59 | 1020.1 |
| 20260901110028 | 71 | 202 | 5.0 | 12.0 | 0.00 | 0.01 | 0.00 | 59 | 1020.1 |
| 20260901104528 | 72 | 207 | 3.0 | 11.0 | 0.00 | 0.01 | 0.00 | 61 | 1020.1 |
| 20260901103023 | 70 | 202 | 0.0 | 9.0 | 0.00 | 0.01 | 0.00 | 63 | 1020.1 |
| 20260901101527 | 70 | 200 | 5.0 | 12.0 | 0.00 | 0.01 | 0.00 | 61 | 1020.0 |
| 20260901100020 | 70 | 187 | 7.0 | 14.0 | 0.00 | 0.01 | 0.00 | 63 | 1020.1 |
| 20260901094517 | 69 | 192 | 6.0 | 12.0 | 0.00 | 0.01 | 0.00 | 65 | 1020.0 |
| 20260901093020 | 69 | 277 | 6.0 | 15.0 | 0.00 | 0.01 | 0.00 | 66 | 1020.1 |
| 20260901091515 | 69 | 360 | 7.0 | 15.0 | 0.00 | 0.01 | 0.00 | 67 | 1020.0 |
| 20260901090013 | 68 | 213 | 4.0 | 10.0 | 0.00 | 0.01 | 0.00 | 69 | 1020.0 |
| 20260901084519 | 67 | 360 | 6.0 | 16.0 | 0.00 | 0.01 | 0.00 | 69 | 1020.2 |
| 20260901083101 | 67 | 183 | 1.0 | 10.0 | 0.00 | 0.01 | 0.00 | 73 | 1020.2 |
| 20260901081605 | 65 | 207 | 0.0 | 0.0 | 0.00 | 0.01 | 0.00 | 76 | 1020.1 |
| 20260901080053 | 64 | 207 | 0.0 | 0.0 | 0.00 | 0.01 | 0.00 | 79 | 1020.0 |
| 20260901074547 | 63 | 360 | 0.0 | 0.0 | 0.00 | 0.01 | 0.00 | 82 | 1020.1 |
| 20260901073043 | 61 | 185 | 0.0 | 0.0 | 0.00 | 0.01 | 0.00 | 84 | 1019.9 |
| 20260901071543 | 60 | 360 | 0.0 | 0.0 | 0.00 | 0.01 | 0.00 | 84 | 1019.8 |
| 20260901070054 | 59 | 360 | 0.0 | 0.0 | 0.00 | 0.01 | 0.00 | 83 | 1019.8 |
| 20260901064539 | 58 | 152 | 0.0 | 0.0 | 0.00 | 0.01 | 0.00 | 82 | 1019.9 |
| 20260901063042 | 58 | 138 | 0.0 | 0.0 | 0.00 | 0.01 | 0.00 | 82 | 1020.0 |
| 20260901061537 | 57 | 138 | 0.0 | 0.0 | 0.00 | 0.01 | 0.00 | 82 | 1020.1 |
| 20260901060007 | 57 | 214 | 0.0 | 0.0 | 0.00 | 0.01 | 0.00 | 82 | 1020.0 |
| 20260901054505 | 56 | 155 | 0.0 | 0.0 | 0.00 | 0.01 | 0.00 | 83 | 1019.8 |
| 20260901053004 | 55 | 155 | 0.0 | 0.0 | 0.00 | 0.01 | 0.00 | 84 | 1019.9 |
| 20260901051607 | 55 | 360 | 0.0 | 0.0 | 0.00 | 0.01 | 0.00 | 84 | 1019.7 |
| 20260901050057 | 55 | 360 | 0.0 | 0.0 | 0.00 | 0.01 | 0.00 | 85 | 1019.5 |
| 20260901044617 | 55 | 360 | 0.0 | 0.0 | 0.00 | 0.01 | 0.00 | 85 | 1019.6 |
| 20260901043053 | 56 | 360 | 0.0 | 0.0 | 0.00 | 0.01 | 0.00 | 85 | 1019.5 |
| 20260901041551 | 56 | 360 | 0.0 | 0.0 | 0.00 | 0.01 | 0.00 | 85 | 1019.4 |
| 20260901040050 | 56 | 360 | 0.0 | 0.0 | 0.00 | 0.01 | 0.00 | 85 | 1019.3 |
| 20260901034556 | 57 | 360 | 0.0 | 0.0 | 0.00 | 0.02 | 0.00 | 85 | 1019.3 |
| 20260901033047 | 57 | 360 | 0.0 | 0.0 | 0.00 | 0.02 | 0.00 | 85 | 1019.2 |
| 20260901031551 | 57 | 360 | 0.0 | 0.0 | 0.00 | 0.02 | 0.00 | 85 | 1019.1 |
| 20260901030046 | 57 | 360 | 0.0 | 0.0 | 0.00 | 0.02 | 0.00 | 85 | 1019.1 |
| 20260901024543 | 57 | 360 | 0.0 | 0.0 | 0.00 | 0.42 | 0.00 | 85 | 1019.0 |
| 20260901023043 | 57 | 360 | 0.0 | 0.0 | 0.00 | 0.42 | 0.00 | 85 | 1019.0 |
| 20260901021600 | 57 | 360 | 0.0 | 0.0 | 0.00 | 0.42 | 0.00 | 85 | 1018.9 |
| 20260901020058 | 58 | 360 | 0.0 | 0.0 | 0.00 | 0.42 | 0.00 | 85 | 1018.7 |
| 20260901014536 | 58 | 360 | 0.0 | 0.0 | 0.00 | 0.42 | 0.00 | 85 | 1018.7 |
| 20260901013041 | 58 | 360 | 0.0 | 0.0 | 0.00 | 0.42 | 0.00 | 85 | 1018.6 |
| 20260901011633 | 59 | 360 | 0.0 | 0.0 | 0.00 | 0.42 | 0.00 | 84 | 1018.7 |
| 20260901010032 | 59 | 360 | 0.0 | 0.0 | 0.00 | 0.42 | 0.00 | 85 | 1018.5 |
| 20260901004530 | 59 | 360 | 0.0 | 0.0 | 0.00 | 0.42 | 0.00 | 85 | 1018.3 |
| 20260901003031 | 59 | 360 | 0.0 | 0.0 | 0.00 | 0.42 | 0.00 | 84 | 1018.1 |
| 20260901001528 | 59 | 360 | 0.0 | 0.0 | 0.00 | 0.42 | 0.00 | 84 | 1018.1 |
| 20260901000026 | 59 | 360 | 0.0 | 0.0 | 0.00 | 0.42 | 0.00 | 84 | 1018.1 |
| 20260831234525 | 60 | 360 | 0.0 | 0.0 | 0.00 | 0.42 | 0.00 | 83 | 1017.9 |
| 20260831233035 | 60 | 360 | 0.0 | 0.0 | 0.00 | 0.42 | 0.00 | 83 | 1018.0 |
| 20260831231520 | 61 | 360 | 0.0 | 0.0 | 0.00 | 0.42 | 0.00 | 83 | 1017.9 |
| 20260831230019 | 61 | 360 | 0.0 | 4.0 | 0.00 | 0.42 | 0.00 | 83 | 1018.0 |
| 20260831224518 | 61 | 360 | 0.0 | 4.0 | 0.00 | 0.42 | 0.00 | 82 | 1018.1 |
| 20260831223017 | 61 | 360 | 3.0 | 6.0 | 0.00 | 0.42 | 0.00 | 82 | 1018.0 |
| 20260831221514 | 61 | 360 | 3.0 | 6.0 | 0.00 | 0.42 | 0.00 | 82 | 1017.9 |
| 20260831220016 | 62 | 169 | 3.0 | 12.0 | 0.00 | 0.42 | 0.00 | 81 | 1017.9 |
| 20260831214517 | 62 | 360 | 5.0 | 12.0 | 0.00 | 0.42 | 0.42 | 81 | 1017.8 |
| 20260831213019 | 62 | 360 | 2.0 | 9.0 | 0.00 | 0.42 | 0.42 | 79 | 1017.7 |
| 20260831211509 | 63 | 360 | 4.0 | 9.0 | 0.00 | 0.42 | 0.42 | 79 | 1017.6 |
| 20260831210007 | 63 | 360 | 4.0 | 11.0 | 0.00 | 0.42 | 0.42 | 78 | 1017.3 |
| 20260831204608 | 63 | 360 | 4.0 | 11.0 | 0.00 | 0.42 | 0.42 | 78 | 1017.2 |
| 20260831203005 | 62 | 360 | 5.0 | 10.0 | 0.00 | 0.42 | 0.42 | 79 | 1017.0 |
| 20260831201507 | 62 | 205 | 4.0 | 8.0 | 0.00 | 0.42 | 0.42 | 80 | 1017.1 |
| 20260831200005 | 62 | 196 | 1.0 | 8.0 | 0.00 | 0.42 | 0.42 | 80 | 1016.9 |